Terminal Aerodrome Forecast
Issued by NWS St Louis, MO

Home | Current Version | Previous Version | Text Only | Print | Product List | Glossary On
Versions: 1 2 3 4 5 6 7 8 9 10 11 12 13 14 15 16 17 18 19 20 21 22 23 24 25 26 27
000
FTUS43 KLSX 241900 AAB
TAFCOU
TAF AMD
KCOU 241932Z 2420/2518 16014G24KT P6SM SCT025 BKN060
      TEMPO 2420/2421 4SM -TSRA OVC030CB
     FM242200 17015G25KT 6SM -SHRA VCTS BKN035CB
     FM250400 15014KT P6SM BKN020
     FM250900 22009KT P6SM SCT009 BKN020
     FM251300 19008KT P6SM SCT025=

USA.gov is the U.S. government's official web portal to all federal, state and local government web resources and services.